DateTimeUTC,F1_A11,F1_S11,BsB_S11,BsG_S11,BsR_S11,BbsB_S11,BbsG_S11,BbsR_S11,BaB_A11,BaG_A11,BaR_A11,Tu_S11,T_S11,Uu_S11,U_S11,P_S11,T1_A11
2021-07-07T01:00:00Z,00000200,20000000,,,,,,,-000.14,-000.80,-000.00,19.3,26.2,03.9,02.6,0659.1,31.2
2021-07-07T01:01:00Z,00000200,20000000,,,,,,,-000.06,0000.24,0000.05,19.3,26.2,04.0,02.6,0659.1,31.2
2021-07-07T01:02:00Z,00000200,20000000,,,,,,,0000.22,0000.06,-000.25,19.3,26.2,04.0,02.6,0659.1,31.2
2021-07-07T01:03:00Z,00000200,60000000,,,,,,,-000.07,0000.09,0000.14,19.3,26.2,04.0,02.6,0659.1,31.2
2021-07-07T01:04:00Z,00000200,40000000,0000.02,0000.05,0000.10,0000.32,-000.28,0000.30,-000.03,0000.09,0000.26,19.3,25.9,04.1,02.7,0660.0,31.2
2021-07-07T01:05:00Z,00000200,00000000,0000.64,0000.04,-000.04,0000.05,-000.42,0000.20,0000.14,-000.09,-000.30,19.3,25.8,04.0,02.7,0660.0,31.2
2021-07-07T01:06:00Z,00000200,00000000,-000.04,-000.07,-000.10,0000.39,-000.17,0000.00,0000.06,0000.06,0000.20,19.3,25.8,03.9,02.6,0660.0,31.2
2021-07-07T01:07:00Z,00000200,00000000,0000.53,-000.03,-000.05,0000.66,-000.28,0000.15,-000.05,-000.02,0000.09,19.4,25.9,03.9,02.6,0660.0,31.2
2021-07-07T01:08:00Z,00000200,00000000,0000.31,0000.08,-000.02,0000.10,-000.03,-000.04,0000.47,0000.07,-000.02,19.5,25.9,03.9,02.6,0660.0,31.2
2021-07-07T01:09:00Z,00000200,00000000,-000.01,0000.40,0000.11,0000.21,0000.16,0000.12,-000.42,-000.06,-000.11,19.5,25.9,03.9,02.6,0660.0,31.2
2021-07-07T01:10:00Z,00000200,00000000,0000.38,0000.01,0000.15,0000.27,-000.08,0000.16,-000.24,-000.43,-000.18,19.6,26.0,03.9,02.6,0660.0,31.2
2021-07-07T01:11:00Z,00000200,00000000,0000.34,0000.08,0000.08,0001.01,0000.04,0000.32,0000.12,0000.33,0000.28,19.5,26.0,03.8,02.6,0660.0,31.2
2021-07-07T01:12:00Z,00000200,00000000,0000.26,0000.20,-000.24,-000.53,-000.18,0000.02,-000.02,0000.14,0000.07,19.5,25.9,03.9,02.6,0660.0,31.2
2021-07-07T01:13:00Z,00000200,00000000,0000.00,0000.38,0000.05,-000.62,0000.04,0000.43,0000.17,0000.01,-000.20,19.4,25.9,03.8,02.6,0660.0,31.2
2021-07-07T01:14:00Z,00000200,00000000,-000.16,0000.20,0000.13,0000.07,0000.07,0000.03,-000.09,-000.28,-000.44,19.4,25.8,03.8,02.5,0659.9,31.2
2021-07-07T01:15:00Z,00000200,00000000,0000.30,-000.08,0000.28,0000.74,-000.10,0000.25,0000.28,0000.32,0000.55,19.3,25.8,03.8,02.6,0659.9,31.2
2021-07-07T01:16:00Z,00000200,00000000,0000.31,-000.09,-000.12,0000.27,0000.32,0000.12,0000.06,0000.31,0000.24,19.3,25.8,03.9,02.6,0659.9,31.2
2021-07-07T01:17:00Z,00000200,00000000,0000.86,0000.14,0000.27,0000.13,0000.29,0000.22,-000.41,-000.83,-000.66,19.3,25.8,04.0,02.7,0659.9,31.2
2021-07-07T01:18:00Z,00000200,00000000,-000.18,0000.28,0000.04,0000.27,-000.08,0000.03,0000.04,0000.05,0000.31,19.2,25.7,03.9,02.6,0659.9,31.2
2021-07-07T01:19:00Z,00000200,00000000,0000.12,0000.11,0000.21,-000.18,0000.13,-000.01,0000.24,0000.27,-000.12,19.2,25.7,03.8,02.5,0659.9,31.2
2021-07-07T01:20:00Z,00000200,00000000,0000.03,0000.03,0000.04,0000.29,-000.18,0000.09,-000.51,-000.02,0000.33,19.1,25.7,03.7,02.5,0659.9,31.2
2021-07-07T01:21:00Z,00000200,00000000,0000.25,0000.17,-000.19,0000.27,-000.05,0000.06,0000.22,-000.01,-000.09,19.2,25.7,03.7,02.5,0659.9,31.2
2021-07-07T01:22:00Z,00000200,00000000,0000.58,0000.38,0000.48,0000.12,0000.09,0000.12,0000.08,0000.15,-000.20,19.3,25.7,03.6,02.4,0659.9,31.2
2021-07-07T01:23:00Z,00000200,00000000,0000.16,0000.04,0000.08,-000.24,-000.04,0000.02,-000.06,-000.01,0000.04,19.4,25.8,03.6,02.4,0659.9,31.2
2021-07-07T01:24:00Z,00000200,00000000,-000.39,0000.04,-000.12,0000.64,0000.32,-000.01,0000.33,0000.12,0000.25,19.5,25.8,03.4,02.3,0659.9,31.2
2021-07-07T01:25:00Z,00000200,00000000,0000.43,0000.61,0000.09,0000.16,0000.10,0000.25,-000.26,-000.13,-000.36,19.6,25.9,03.3,02.2,0659.9,31.3
2021-07-07T01:26:00Z,00000200,00000000,0001.17,0000.48,0000.15,-000.08,-000.04,0000.06,-000.07,-000.13,-000.06,19.6,25.9,03.3,02.2,0659.9,31.3
2021-07-07T01:27:00Z,00000200,00000000,0000.17,-000.10,-000.08,-000.22,-000.10,0000.06,-000.00,-000.15,0000.10,19.7,26.0,03.3,02.3,0659.9,31.3
2021-07-07T01:28:00Z,00000200,00000000,0000.21,0000.36,0000.20,-000.33,0000.04,0000.42,-000.42,0000.01,0000.02,19.7,26.0,03.2,02.2,0659.9,31.3
2021-07-07T01:29:00Z,00000200,00000000,0000.91,0000.62,0000.10,-000.06,0000.13,0000.04,0000.25,0000.16,-000.29,19.6,26.0,03.1,02.1,0659.9,31.2
2021-07-07T01:30:00Z,00000200,00000000,-000.01,0000.49,0000.01,0000.59,-000.13,-000.02,-000.56,-000.23,0000.18,19.6,25.9,03.1,02.1,0659.9,31.2
2021-07-07T01:31:00Z,00000200,00000000,0000.34,0000.21,0000.47,-000.15,-000.33,0000.27,-000.12,-000.61,-000.31,19.5,25.9,03.0,02.1,0659.9,31.2
2021-07-07T01:32:00Z,00000200,00000000,0000.36,0000.19,0000.07,-000.02,0000.09,0000.21,0000.17,0000.37,0000.14,19.5,25.9,03.0,02.0,0659.9,31.2
2021-07-07T01:33:00Z,00000200,00000000,-000.20,0000.37,-000.01,-000.21,-000.07,-000.04,0000.08,-000.11,-000.06,19.4,25.8,03.0,02.1,0659.9,31.2
2021-07-07T01:34:00Z,00000200,00000000,0000.39,0000.19,0000.20,-000.25,0000.28,0000.06,0000.10,0000.02,0000.09,19.4,25.8,03.0,02.0,0659.9,31.2
2021-07-07T01:35:00Z,00000200,00000000,0000.39,0000.36,-000.27,0000.03,-000.01,-000.07,-000.10,0000.12,-000.03,19.3,25.8,02.9,02.0,0659.9,31.2
2021-07-07T01:36:00Z,00000200,00000000,0000.80,0000.18,0000.02,0000.27,-000.16,0000.31,0000.03,-000.01,-000.08,19.4,25.8,02.9,02.0,0659.9,31.2
2021-07-07T01:37:00Z,00000200,00000000,-000.09,0000.02,0000.18,0000.26,0000.18,-000.08,0000.07,0000.10,0000.43,19.4,25.8,02.9,02.0,0659.9,31.2
2021-07-07T01:38:00Z,00000200,00000000,0000.45,0000.38,0000.28,-000.52,0000.01,-000.11,0000.25,0000.17,-000.33,19.5,25.9,02.9,02.0,0659.9,31.3
2021-07-07T01:39:00Z,00000200,00000000,0000.11,0000.26,0000.06,0000.45,-000.03,0000.05,-000.04,0000.31,0000.38,19.6,25.9,02.9,02.0,0659.9,31.3
2021-07-07T01:40:00Z,00000200,00000000,0000.20,0000.24,0000.05,0000.15,0000.06,0000.01,-000.18,0000.05,-000.20,19.7,26.0,02.9,02.0,0659.9,31.3
2021-07-07T01:41:00Z,00000200,00000000,0000.99,0000.38,0000.21,0000.18,0000.31,0000.11,-000.12,-000.14,-000.07,19.8,26.0,02.8,01.9,0659.9,31.3
2021-07-07T01:42:00Z,00000200,00000000,0000.39,0000.11,0000.29,0000.30,0000.06,0000.34,0000.32,0000.07,0000.30,19.8,26.1,02.7,01.9,0659.9,31.3
2021-07-07T01:43:00Z,00000200,00000000,0000.14,0000.23,-000.14,0000.41,-000.02,0000.06,-000.22,-000.10,-000.22,19.8,26.1,02.8,01.9,0659.9,31.2
2021-07-07T01:44:00Z,00000200,00000000,0000.02,0000.04,0000.19,0000.16,0000.06,0000.09,0000.31,-000.18,-000.18,19.7,26.0,02.8,01.9,0659.9,31.2
2021-07-07T01:45:00Z,00000200,00000000,0000.51,0000.09,-000.05,0000.37,0000.14,-000.05,-000.27,0000.24,0000.04,19.7,26.0,02.8,01.9,0659.9,31.2
2021-07-07T01:46:00Z,00000200,00000000,0000.89,-000.09,-000.21,-000.53,-000.22,-000.18,0000.25,0000.10,0000.28,19.6,25.9,02.9,02.0,0659.9,31.2
2021-07-07T01:47:00Z,00000200,00000000,-000.10,0000.43,0000.17,-000.54,0000.23,-000.14,0000.15,-000.16,-000.06,19.5,25.9,03.0,02.0,0659.8,31.2
2021-07-07T01:48:00Z,00000200,00000000,0000.41,0000.03,0000.22,-000.11,0000.13,0000.31,0000.16,0000.70,0000.16,19.5,25.9,03.1,02.1,0659.8,31.2
2021-07-07T01:49:00Z,00000200,00000000,-000.18,0000.22,0000.34,0000.07,0000.00,0000.23,-000.16,-000.46,0000.34,19.4,25.9,03.1,02.1,0659.8,31.2
2021-07-07T01:50:00Z,00000200,00000000,0000.31,0000.17,0000.17,0000.20,0000.15,0000.27,0000.68,0000.61,0000.06,19.4,25.8,03.2,02.1,0659.8,31.2
2021-07-07T01:51:00Z,00000200,00000000,0000.80,0000.05,0000.11,0000.64,0000.14,-000.34,-000.15,-000.30,0000.07,19.4,25.8,03.2,02.2,0659.8,31.2
2021-07-07T01:52:00Z,00000200,00000000,0000.34,0000.26,0000.03,0000.68,-000.02,0000.01,0000.47,0000.39,-000.03,19.5,25.9,03.2,02.1,0659.8,31.2
2021-07-07T01:53:00Z,00000200,00000000,-000.20,0000.31,-000.05,-000.13,0000.04,-000.10,-000.23,0000.29,0000.23,19.6,25.9,03.3,02.2,0659.8,31.2
2021-07-07T01:54:00Z,00000200,00000000,-000.12,0000.07,0000.09,0000.57,-000.08,0000.33,0000.14,-000.12,-000.05,19.6,25.9,03.3,02.2,0659.8,31.2
2021-07-07T01:55:00Z,00000200,00000000,0000.50,0000.32,0000.13,-000.10,0000.09,-000.11,0000.19,-000.23,0000.08,19.7,26.0,03.2,02.2,0659.8,31.2
2021-07-07T01:56:00Z,00000200,00000000,0000.46,0000.21,-000.19,0000.27,-000.36,-000.04,-000.27,-000.04,-000.09,19.7,26.0,03.2,02.2,0659.8,31.2
2021-07-07T01:57:00Z,00000200,40000000,,,,,,,0000.18,0000.28,0000.12,19.7,26.0,03.5,02.4,0659.8,31.2
2021-07-07T01:58:00Z,00000200,60000000,,,,,,,0000.30,0000.09,-000.01,19.3,26.1,03.3,02.2,0658.8,31.2
2021-07-07T01:59:00Z,00000200,20000000,,,,,,,-000.78,-000.55,-000.52,19.3,26.2,03.2,02.1,0658.8,31.2
